Regional Weather Roundup
Issued by NWS

Home | Current Version | Previous Version | Text Only | Print | Product List | Glossary On
Versions: 1 2 3 4 5 6 7 8 9 10 11 12 13 14 15 16 17 18 19 20 21 22 23 24 25 26 27 28 29 30 31 32 33 34 35 36 37 38 39 40 41 42 43 44 45 46 47 48 49 50
000
ASCA42 TJSJ 171110
RWRPR
PUERTO RICO/U.S. VIRGIN ISLANDS HOURLY WEATHER ROUNDUP
NATIONAL WEATHER SERVICE SAN JUAN PR
700 AM AST TUE JAN 17 2017

PRZ001>002-007>008-010-171200-
PUERTO RICO

CITY           SKY/WX    TMP DP  RH WIND       PRES   REMARKS
SAN JUAN LMM   MOCLDY    73  70  88 E9        30.08R
AGUADILLA      PTCLDY    72  63  73 E13G20    30.08
CEIBA          CLOUDY    72  70  94 NE12G21   30.09R
$$

VIZ001>002-171200-
U.S. VIRGIN ISLANDS

CITY           SKY/WX    TMP DP  RH WIND       PRES   REMARKS
CHARLOTTE AMA  CLEAR     73  66  78 NE8       30.05R
CHRISTIANSTED  PTCLDY    73  64  73 NE9       30.05R
$$

HOURLY WEATHER ROUNDUP FOR THE NEWS MEDIA

CITY           SKY/WX    TMP DP  RH WIND       PRES   REMARKS
ORLANDO        CLOUDY    57  56  96 CALM      30.22S
NEW YORK       CLOUDY    40  27  59 SW8       30.24S WCI  34
NEWARK         CLOUDY    39  26  59 SW6       30.22F WCI  35
CHICAGO        DRZL/FOG  38  37  97 NW9       29.73R VSB 3/4 WCI  31
HARTFORD       CLOUDY    35  25  66 CALM      30.20R
BOSTON         PTCLDY    35  19  52 W8        30.21R WCI  29
DALLAS         MOCLDY    46  37  71 NW6       30.15R
PHILADELPHIA   CLOUDY    39  30  70 S3        30.25F
LOS ANGELES    CLEAR     48  47  96 NE3       30.06S
WASHINGTON DC  CLOUDY    40  38  93 SE3       30.18F


USA.gov is the U.S. government's official web portal to all federal, state and local government web resources and services.